Merlot Commodore — WDD7653 — position and weather

sailwx.info

Track history (hours):
 
Tides and Currents Weather Stations Pressure Air Temp Water Temp Dewpoint Dewpoint Depression Visibility Wind Speed Wind Dir Waves Ship Positions

Merlot Commodore

Owner: Proescher, Ward H, Alameda, CA. More information available from US FCC via Universal Licensing System and Coast Guard Vessel Documentation Center.

Last reported at 2017-Dec-09 03:56 UTC. Time now 2017-Dec-12 16:18 UTC.
Position N 37°47' W 122°17'.

Length 24 m; draft 1.8 m.

Type: Passenger vessel. MMSI: 367189370.

Date/timePositionNaut miles runAvg speedWind from/ knotsBaromVisibWave heightAir tempDewpointWater temp
2017-Dec-09 03:56N 37°47' W 122°17'2 4.1
2017-Dec-09 03:30N 37°48' W 122°19'4 7.8
2017-Dec-09 03:01N 37°48' W 122°24'3 6.2
2017-Dec-09 02:30N 37°49' W 122°28'3 5.5
2017-Dec-09 02:01N 37°51' W 122°29'0 0.7
2017-Dec-09 01:30N 37°51' W 122°29'3 6.0
2017-Dec-09 01:00N 37°50' W 122°25'4 7.6
2017-Dec-09 00:30N 37°48' W 122°21'3 6.7
2017-Dec-09 00:00N 37°47' W 122°17'0 0.0
2017-Dec-08 23:30N 37°47' W 122°17'0 0.0
2017-Dec-08 22:11N 37°47' W 122°17'0 0.0
2017-Dec-08 22:01N 37°47' W 122°17'0 0.0
2017-Dec-08 06:52N 37°47' W 122°17'2 4.5
2017-Dec-08 06:30N 37°48' W 122°19'4 7.4
2017-Dec-08 06:00N 37°47' W 122°23'1 1.5
2017-Dec-08 05:30N 37°46' W 122°22'3 5.2
2017-Dec-08 05:00N 37°49' W 122°21'3 5.8
2017-Dec-08 04:30N 37°50' W 122°25'2 4.7
2017-Dec-08 04:00N 37°49' W 122°28'2 3.9
2017-Dec-08 03:30N 37°49' W 122°25'3 5.7
2017-Dec-08 03:00N 37°47' W 122°23'0 0.5
2017-Dec-08 02:30N 37°47' W 122°23'3 6.7
2017-Dec-08 02:01N 37°48' W 122°19'2 3.9
2017-Dec-08 01:30N 37°47' W 122°17'0 0.0
2017-Dec-08 00:12N 37°47' W 122°17'0 0.0
2017-Dec-08 00:00N 37°47' W 122°17'  
2017-Dec-03 06:51N 37°47' W 122°17'1 3.8
2017-Dec-03 06:30N 37°48' W 122°18'4 8.0
2017-Dec-03 06:01N 37°47' W 122°23'1 2.0
2017-Dec-03 05:31N 37°47' W 122°22'3 5.2
2017-Dec-03 05:00N 37°50' W 122°22'3 5.3
2017-Dec-03 04:30N 37°49' W 122°25'2 4.2
2017-Dec-03 04:00N 37°47' W 122°23'1 1.6
2017-Dec-03 03:30N 37°47' W 122°23'3 5.2
2017-Dec-03 03:00N 37°49' W 122°25'2 4.8
2017-Dec-03 02:30N 37°47' W 122°23'0 0.0
2017-Dec-03 02:00N 37°47' W 122°23'0 0.3
2017-Dec-03 01:30N 37°47' W 122°23'4 8.4
2017-Dec-03 01:00N 37°48' W 122°18'1 1.8
2017-Dec-03 00:30N 37°47' W 122°17'0 0.0
2017-Dec-03 00:00N 37°47' W 122°17'0 0.0
2017-Dec-02 05:54N 37°47' W 122°17'0 0.3
2017-Dec-02 05:30N 37°48' W 122°17'0 0.9
2017-Dec-02 05:00N 37°48' W 122°17'3 6.9
2017-Dec-02 04:30N 37°49' W 122°21'2 4.0
2017-Dec-02 04:00N 37°48' W 122°24'1 1.1
2017-Dec-02 03:30N 37°49' W 122°24'2 4.6
2017-Dec-02 03:00N 37°47' W 122°22'4 7.8
2017-Dec-02 02:30N 37°48' W 122°17'1 1.0
2017-Dec-02 02:00N 37°48' W 122°17'0 0.3
2017-Dec-02 01:30N 37°47' W 122°17'0 0.0
2017-Dec-02 01:00N 37°47' W 122°17'0 0.0
2017-Dec-02 00:05N 37°47' W 122°17'0 0.1
2017-Dec-02 00:00N 37°47' W 122°17'  
Track history (hours):
 
Tides and Currents Weather Stations Pressure Air Temp Water Temp Dewpoint Dewpoint Depression Visibility Wind Speed Wind Dir Waves Ship Positions

Merlot Commodore

Owner: Proescher, Ward H, Alameda, CA. More information available from US FCC via Universal Licensing System and Coast Guard Vessel Documentation Center.

Last reported at 2017-Dec-09 03:56 UTC. Time now 2017-Dec-12 16:18 UTC.
Position N 37°47' W 122°17'.

Length 24 m; draft 1.8 m.

Type: Passenger vessel. MMSI: 367189370.

Date/timePositionNaut miles runAvg speedWind from/ knotsBaromVisibWave heightAir tempDewpointWater temp
2017-Dec-09 03:56N 37°47' W 122°17'2 4.1
2017-Dec-09 03:30N 37°48' W 122°19'4 7.8
2017-Dec-09 03:01N 37°48' W 122°24'3 6.2
2017-Dec-09 02:30N 37°49' W 122°28'3 5.5
2017-Dec-09 02:01N 37°51' W 122°29'0 0.7
2017-Dec-09 01:30N 37°51' W 122°29'3 6.0
2017-Dec-09 01:00N 37°50' W 122°25'4 7.6
2017-Dec-09 00:30N 37°48' W 122°21'3 6.7
2017-Dec-09 00:00N 37°47' W 122°17'0 0.0
2017-Dec-08 23:30N 37°47' W 122°17'0 0.0
2017-Dec-08 22:11N 37°47' W 122°17'0 0.0
2017-Dec-08 22:01N 37°47' W 122°17'0 0.0
2017-Dec-08 06:52N 37°47' W 122°17'2 4.5
2017-Dec-08 06:30N 37°48' W 122°19'4 7.4
2017-Dec-08 06:00N 37°47' W 122°23'1 1.5
2017-Dec-08 05:30N 37°46' W 122°22'3 5.2
2017-Dec-08 05:00N 37°49' W 122°21'3 5.8
2017-Dec-08 04:30N 37°50' W 122°25'2 4.7
2017-Dec-08 04:00N 37°49' W 122°28'2 3.9
2017-Dec-08 03:30N 37°49' W 122°25'3 5.7
2017-Dec-08 03:00N 37°47' W 122°23'0 0.5
2017-Dec-08 02:30N 37°47' W 122°23'3 6.7
2017-Dec-08 02:01N 37°48' W 122°19'2 3.9
2017-Dec-08 01:30N 37°47' W 122°17'0 0.0
2017-Dec-08 00:12N 37°47' W 122°17'0 0.0
2017-Dec-08 00:00N 37°47' W 122°17'  
2017-Dec-03 06:51N 37°47' W 122°17'1 3.8
2017-Dec-03 06:30N 37°48' W 122°18'4 8.0
2017-Dec-03 06:01N 37°47' W 122°23'1 2.0
2017-Dec-03 05:31N 37°47' W 122°22'3 5.2
2017-Dec-03 05:00N 37°50' W 122°22'3 5.3
2017-Dec-03 04:30N 37°49' W 122°25'2 4.2
2017-Dec-03 04:00N 37°47' W 122°23'1 1.6
2017-Dec-03 03:30N 37°47' W 122°23'3 5.2
2017-Dec-03 03:00N 37°49' W 122°25'2 4.8
2017-Dec-03 02:30N 37°47' W 122°23'0 0.0
2017-Dec-03 02:00N 37°47' W 122°23'0 0.3
2017-Dec-03 01:30N 37°47' W 122°23'4 8.4
2017-Dec-03 01:00N 37°48' W 122°18'1 1.8
2017-Dec-03 00:30N 37°47' W 122°17'0 0.0
2017-Dec-03 00:00N 37°47' W 122°17'0 0.0
2017-Dec-02 05:54N 37°47' W 122°17'0 0.3
2017-Dec-02 05:30N 37°48' W 122°17'0 0.9
2017-Dec-02 05:00N 37°48' W 122°17'3 6.9
2017-Dec-02 04:30N 37°49' W 122°21'2 4.0
2017-Dec-02 04:00N 37°48' W 122°24'1 1.1
2017-Dec-02 03:30N 37°49' W 122°24'2 4.6
2017-Dec-02 03:00N 37°47' W 122°22'4 7.8
2017-Dec-02 02:30N 37°48' W 122°17'1 1.0
2017-Dec-02 02:00N 37°48' W 122°17'0 0.3
2017-Dec-02 01:30N 37°47' W 122°17'0 0.0
2017-Dec-02 01:00N 37°47' W 122°17'0 0.0
2017-Dec-02 00:05N 37°47' W 122°17'0 0.1
2017-Dec-02 00:00N 37°47' W 122°17'  

Dump ship's entire track history